Los Angeles, CA

7:34 AM PDT on April 29, 2017 (GMT -0700)
Los Angeles International

Weather History for KLAX - October, 2013

Change the Weather History Date:

Tuesday, October 8, 2013

  Actual Average Record
Temperature  
Mean Temperature 66 °F 67 °F  
Max Temperature 71 °F 73 °F 98 °F (1994)
Min Temperature 60 °F 61 °F 51 °F (1946)
Degree Days  
Heating Degree Days 0 1  
Month to date heating degree days 0 5  
Since 1 July heating degree days 1 14  
Cooling Degree Days 1 2  
Month to date cooling degree days 45 23  
Year to date cooling degree days 636 491  
Growing Degree Days 16 (Base 50)    
Moisture  
Dew Point 56 °F    
Average Humidity 74    
Maximum Humidity 90    
Minimum Humidity 57    
Precipitation  
Precipitation 0.00 in 0.02 in 0.04 in (1973)
Month to date precipitation 0.00 0.11  
Year to date precipitation 2.64 9.21  
Since 1 July precipitation 0.03  
Sea Level Pressure  
Sea Level Pressure 29.88 in    
Wind  
Wind Speed 7 mph (WSW)    
Max Wind Speed 15 mph    
Max Gust Speed 22 mph    
Visibility 9 miles    
Events Fog    
T = Trace of Precipitation, MM = Missing Value Source: NWS Daily Summary

Daily Weather History Graph

Daily Weather History Graph

Search for Another Location

Airport or City:

Trip Planner

Search our weather history database for the weather conditions in past years. The results will help you decide how hot, cold, wet, or windy it might be!

Date:

Astronomy

Oct. 08, 2013 Rise Set
Actual Time 6:53 AM PDT 6:28 PM PDT
Civil Twilight 6:28 AM PDT 6:53 PM PDT
Nautical Twilight 5:59 AM PDT 7:21 PM PDT
Astronomical Twilight 5:30 AM PDT 7:50 PM PDT
Moon 10:42 AM PDT (10/8) 9:19 PM PDT (10/8)
Length of Visible Light 12h 24m
Length of Day
11h 34m
Waxing Crescent, 17% of the Moon is Illuminated
Oct 8
Waxing Crescent
Oct 11
First Quarter
Oct 18
Full
Oct 26
Last Quarter
Nov 3
New

Hourly Weather History & Observations

Time (PDT) Temp. Dew Point Humidity Pressure Visibility Wind Dir Wind Speed Gust Speed Precip Events Conditions
12:33 AM 64.4 °F 59.0 °F 83% 29.93 in 10.0 mi SW 3.5 mph - N/A   Mostly Cloudy
12:53 AM 64.9 °F 59.0 °F 81% 29.92 in 10.0 mi WSW 6.9 mph - N/A   Mostly Cloudy
1:53 AM 64.0 °F 57.9 °F 80% 29.92 in 10.0 mi West 5.8 mph - N/A   Mostly Cloudy
2:43 AM 62.6 °F 57.2 °F 82% 29.92 in 10.0 mi West 3.5 mph - N/A   Scattered Clouds
2:53 AM 63.0 °F 57.9 °F 84% 29.91 in 10.0 mi WNW 3.5 mph - N/A   Scattered Clouds
3:53 AM 63.0 °F 57.9 °F 84% 29.89 in 10.0 mi Calm Calm - N/A   Partly Cloudy
4:53 AM 61.0 °F 57.0 °F 87% 29.89 in 9.0 mi Calm Calm - N/A   Partly Cloudy
5:38 AM 60.8 °F 57.2 °F 88% 29.90 in 9.0 mi Calm Calm - N/A   Mostly Cloudy
5:53 AM 61.0 °F 57.0 °F 87% 29.89 in 9.0 mi ENE 3.5 mph - N/A   Mostly Cloudy
6:53 AM 62.1 °F 57.9 °F 86% 29.90 in 8.0 mi East 3.5 mph - N/A Fog Patches of Fog
7:07 AM 62.6 °F 57.2 °F 82% 29.91 in 7.0 mi Calm Calm - N/A Fog Patches of Fog
7:53 AM 64.0 °F 57.9 °F 80% 29.92 in 7.0 mi ESE 3.5 mph - N/A Fog Patches of Fog
8:53 AM 64.9 °F 57.0 °F 75% 29.92 in 7.0 mi Variable 3.5 mph - N/A   Mostly Cloudy
9:53 AM 68.0 °F 55.9 °F 65% 29.93 in 8.0 mi WSW 4.6 mph - N/A   Mostly Cloudy
10:45 AM 66.2 °F 55.4 °F 68% 29.93 in 9.0 mi West 10.4 mph - N/A   Scattered Clouds
10:53 AM 68.0 °F 55.0 °F 63% 29.93 in 9.0 mi West 9.2 mph - N/A   Scattered Clouds
11:53 AM 70.0 °F 55.0 °F 59% 29.92 in 10.0 mi SW 8.1 mph - N/A   Partly Cloudy
12:53 PM 70.0 °F 54.0 °F 57% 29.89 in 10.0 mi WSW 10.4 mph - N/A   Partly Cloudy
1:53 PM 69.1 °F 54.0 °F 58% 29.88 in 10.0 mi West 13.8 mph - N/A   Partly Cloudy
2:53 PM 69.1 °F 55.0 °F 61% 29.87 in 10.0 mi West 13.8 mph 21.9 mph N/A   Partly Cloudy
3:53 PM 68.0 °F 55.0 °F 63% 29.85 in 10.0 mi West 11.5 mph - N/A   Partly Cloudy
4:53 PM 66.0 °F 55.0 °F 68% 29.84 in 10.0 mi WSW 8.1 mph - N/A   Partly Cloudy
5:53 PM 64.0 °F 55.0 °F 73% 29.84 in 10.0 mi WSW 11.5 mph - N/A   Scattered Clouds
6:40 PM 64.4 °F 55.4 °F 73% 29.84 in 10.0 mi West 12.7 mph - N/A   Overcast
6:53 PM 64.0 °F 55.0 °F 73% 29.84 in 10.0 mi West 11.5 mph - N/A   Mostly Cloudy
7:53 PM 63.0 °F 55.0 °F 75% 29.85 in 10.0 mi West 9.2 mph - N/A   Mostly Cloudy
8:53 PM 64.0 °F 55.0 °F 73% 29.85 in 10.0 mi SW 3.5 mph - N/A   Overcast
9:12 PM 64.4 °F 53.6 °F 68% 29.85 in 10.0 mi WSW 3.5 mph - N/A   Overcast
9:53 PM 64.0 °F 54.0 °F 70% 29.84 in 10.0 mi Calm Calm - N/A   Mostly Cloudy
10:53 PM 64.0 °F 54.0 °F 70% 29.82 in 10.0 mi SSE 5.8 mph - N/A   Overcast
11:12 PM 64.4 °F 53.6 °F 68% 29.83 in 10.0 mi SSW 5.8 mph - N/A   Mostly Cloudy
11:53 PM 64.0 °F 53.1 °F 67% 29.82 in 10.0 mi South 6.9 mph - N/A   Mostly Cloudy